Tracking 29892 objects as of 21-Nov-2024
HD Live streaming from Space Station
objects crossing your sky now

COSMOS 878

Track COSMOS 878 now!
10-day predictions
COSMOS 878 is classified as:


NORAD ID: 9595
Int'l Code: 1976-118H
Perigee: 1,470.1 km
Apogee: 1,482.1 km
Inclination: 74.0 °
Period: 115.3 minutes
Semi major axis: 7847 km
RCS: 0.6837 m2 (medium)
Launch date: December 7, 1976
Source: Commonwealth of Independent States (former USSR) (CIS)
Launch site: PLESETSK MISSILE AND SPACE COMPLEX (PKMTR)
Your satellite tracking list
Your tracking list is empty




NASA's NSSDC Master Catalog

Two Line Element Set (TLE):
1 09595U 76118H   24325.26980677  .00000014  00000-0  19830-3 0  9991
2 09595  74.0329  58.6184 0007694 289.6385  99.7495 12.48934064186328
Source of the keplerian elements: AFSPC